Flag for Poland Weather past 2 weeks in Rzeszów, Poland

Now
37 °F

Light rain. Mostly cloudy.


Feels Like: 28 °F
Forecast: 46 / 48 °F
Wind: 15 mph from Southwest

Location: Rzeszow-Jasionka

Current Time: Dec 22, 2014 at 6:00:10 AM

Latest Report: Dec 22, 2014 at 5:30 AM


Visibility: N/A

Pressure: 29.98 "Hg

Humidity: 93%

Dew point: 36 °F

Location of RzeszówLocation

Historic Weather in Rzeszów — Graph

°F

Rzeszów temperature yesterday

Maximum temperature yesterday: 41 °F (at 12:00 AM)
Minimum temperature yesterday: 36 °F (at 4:30 AM)
Average temperature yesterday: 38 °F

Past Weeks' High & Low Weather Summary

 TemperatureHumidityPressure
High52 °F (Dec 15, 11:30 AM)100% (Dec 7, 4:00 AM)30.36 "Hg (Dec 7, 4:00 AM)
Low28 °F (Dec 7, 4:00 AM)61% (Dec 13, 4:30 AM)29.80 "Hg (Dec 12, 8:30 PM)
Average38 °F86%30.00 "Hg
* Reported Dec 7 4:00 AM — Dec 22 4:30 AM, Rzeszów, Weather by CustomWeather, © 2014

Note: Actual official high and low records may vary slightly from our data, if they occured in-between our weather recording intervals... More about our weather records

Advertising

Rzeszów weather history for previous 24 hours

 ConditionsComfort  
Time TempWeatherWind HumidityBarometerVisibility
4:30 AM
Dec 22
37 °FLight rain. Mostly cloudy.15 mph87%30.01 "HgN/A
4:00 AM39 °FLight rain. Mostly cloudy.15 mph81%30.01 "HgN/A
3:30 AM39 °FLight rain. Overcast.16 mph75%30.04 "HgN/A
3:00 AM39 °FLight rain. Overcast.13 mph75%30.04 "HgN/A
2:30 AM39 °FLight rain. Overcast.12 mph75%30.07 "HgN/A
2:00 AM39 °FLight rain. Overcast.14 mph75%30.07 "HgN/A
1:30 AM39 °FLight rain. Overcast.15 mph75%30.09 "HgN/A
1:00 AM39 °FPassing clouds.12 mph70%30.09 "HgN/A
12:30 AM39 °FPassing clouds.10 mph70%30.09 "HgN/A
12:00 AM39 °FPassing clouds.12 mph75%30.12 "HgN/A
11:30 PM
Dec 21
39 °FPassing clouds.13 mph75%30.12 "HgN/A
10:30 PM39 °FPassing clouds.17 mph81%30.12 "HgN/A
10:00 PM39 °FMostly cloudy.17 mph81%30.15 "HgN/A
9:30 PM37 °FMostly cloudy.16 mph87%30.15 "HgN/A
9:00 PM37 °FOvercast.15 mph87%30.15 "HgN/A
8:30 PM37 °FPartly cloudy.13 mph87%30.15 "HgN/A
8:00 PM37 °FPassing clouds.14 mph87%30.15 "HgN/A
7:30 PM37 °FPassing clouds.13 mph87%30.15 "HgN/A
7:00 PM37 °FPassing clouds.15 mph81%30.15 "HgN/A
6:30 PM37 °FPassing clouds.17 mph81%30.15 "HgN/A
6:00 PM37 °FPassing clouds.16 mph81%30.15 "HgN/A
5:30 PM37 °FSprinkles. Passing clouds.20 mph87%30.15 "HgN/A
5:00 PM39 °FPassing clouds.18 mph75%30.12 "HgN/A
4:30 PM39 °FPassing clouds.20 mph75%30.12 "HgN/A
4:00 PM39 °FPassing clouds.17 mph75%30.12 "HgN/A
3:30 PM39 °FPartly sunny.18 mph75%30.12 "HgN/A
3:00 PM39 °FScattered clouds.16 mph75%30.12 "HgN/A
2:30 PM39 °FScattered clouds.18 mph75%30.09 "HgN/A
2:00 PM39 °FScattered clouds.17 mph75%30.09 "HgN/A
1:30 PM39 °FPartly sunny.18 mph75%30.09 "HgN/A
1:00 PM39 °FSprinkles. Partly sunny.14 mph81%30.07 "HgN/A
12:00 PM39 °FScattered clouds.21 mph81%30.07 "HgN/A
11:30 AM39 °FPartly sunny.17 mph81%30.04 "HgN/A
11:00 AM37 °FPartly sunny.13 mph87%30.04 "HgN/A
10:30 AM37 °FScattered clouds.15 mph87%30.04 "HgN/A
10:00 AM36 °FBroken clouds.16 mph93%30.04 "HgN/A
9:30 AM36 °FSnow flurries. Partly sunny.16 mph87%30.01 "HgN/A
9:00 AM37 °FScattered clouds.22 mph81%30.01 "HgN/A
8:30 AM37 °FScattered clouds.18 mph81%29.98 "HgN/A
8:00 AM37 °FScattered clouds.18 mph81%29.95 "HgN/A
7:30 AM37 °FScattered clouds.14 mph81%29.95 "HgN/A
7:00 AM37 °FPassing clouds.21 mph81%29.92 "HgN/A
6:30 AM37 °FSprinkles. Passing clouds.22 mph81%29.92 "HgN/A
6:00 AM37 °FPassing clouds.21 mph81%29.89 "HgN/A
Weather by CustomWeather, © 2014

See weather overviewHow to use our weather pages